Probability
0 0 0 0 0 0 0 0 0 0 0 0 0 0 0 0 0 0 0 0 0 0 0 0 0 0 0 0 0 0 0 0 0 0 0 0 0 0 0 0 0 0 0 0 0 0 0 0 0
0 0 0 0 0 0 0 0 0 0 0 0 0 0 0 0 0 0 0 0 0 0 0 0 0 0 0 0 0 0 0 0 0 0 0 0 0 0 0 0 0 0 0 0 0 0 0 0 0
0 0 0 0 0 0 0 0 0 0 0 0 0 0 0 0 0 0 0 0 0 0 0 0 0 0 0 0 0 0 0 0 0 0 0 0 0 0 0 0 0 0 0 0 0 0 0 0 0
0 0 0 0 0 0 0 0 0 0 0 0 0 0 0 0 0 0 0 0 0 0 0 0 0 0 0 0 0 0 0 0 0 0 0 0 0 0 0 0 0 0 0 0 0 0 0 0 0
0 0 0 0 0 0 0 0 0 0 0 0 0 0 0 0 0 0 0 0 0 0 0 0 0 0 0 0 0 0 0 0 0 0 0 0 0 0 0 0 0 0 0 0 0 0 0 0 0
0 0 0 0 0 0 0 0 0 0 0 0 0 0 0 0 0 0 0 0 0 0 0 0 3 0 0 0 0 0 0 0 0 0 0 0 0 0 0 0 0 0 0 0 0 0 0 0 0
0 0 0 0 0 0 0 0 0 0 0 0 0 0 0 0 0 0 0 0 0 0 0 0 0 0 0 0 0 0 0 0 0 0 0 0 0 0 0 0 0 0 0 0 0 0 0 0 0
0 0 0 0 0 0 0 0 0 0 0 0 0 0 0 0 0 0 0 0 0 0 0 0 0 0 0 0 0 0 0 0 0 0 0 0 0 0 0 0 0 0 0 0 0 0 0 0 0
0 0 0 0 0 0 0 0 0 0 0 0 0 0 0 0 0 0 0 0 0 0 0 0 0 0 0 0 0 0 0 0 0 0 0 0 0 0 0 0 0 0 0 0 0 0 0 0 0
0 0 0 0 0 0 0 0 0 0 0 0 0 0 0 0 0 0 0 0 0 0 0 0 0 0 0 0 0 0 0 0 0 0 0 0 0 0 0 0 0 0 0 0 0 0 0 0 0
0 0 0 0 0 0 0 0 0 0 0 0 0 0 0 0 0 0 0 0 0 0 0 0 0 0 0 0 0 0 0 0 0 0 0 0 0 0 0 0 0 0 0 0 0 0 0 0 0
0 0 0 0 0 0 0 0 0 0 0 0 0 0 0 0 0 0 0 0 0 0 0 0 0 0 0 0 0 0 0 0 0 0 0 0 0 0 0 0 0 0 0 0 0 0 0 0 0
0 0 0 0 0 0 0 0 0 0 0 0 0 0 0 0 0 0 0 0 0 0 0 0 0 0 0 0 0 0 0 0 0 0 0 0 0 0 0 0 0 0 0 0 0 0 0 0 0
0 0 0 0 0 0 0 0 0 0 0 0 0 0 0 0 0 0 0 0 0 0 0 0 0 0 0 0 0 0 0 0 0 0 0 0 0 0 0 0 0 0 0 0 0 0 0 0 0
0 0 0 0 0 0 0 0 0 0 0 0 0 0 0 0 0 0 0 0 0 0 0 0 0 0 0 0 0 0 0 0 0 0 0 0 0 0 0 0 0 0 0 0 0 0 0 0 0
0 0 0 0 0 0 0 0 0 0 0 0 0 0 0 0 0 0 0 0 0 0 0 0 0 0 0 0 0 0 0 0 0 0 0 0 0 0 0 0 0 0 0 0 0 0 0 0 0
0 0 0 0 0 0 0 0 0 0 0 0 0 0 0 0 0 0 0 0 0 0 0 0 0 0 0 0 0 0 0 0 0 0 0 0 0 0 0 0 0 0 0 0 0 0 0 0 0
0 0 0 0 0 0 0 0 0 0 0 0 0 0 0 0 0 0 0 0 0 0 0 0 0 0 0 0 0 0 0 0 0 0 0 0 0 0 0 0 0 0 0 0 0 0 0 0 0
0 0 0 0 0 0 0 0 0 0 0 0 0 0 0 0 0 0 0 0 0 0 0 0 0 0 0 0 0 0 0 0 0 0 0 0 0 0 0 0 0 0 0 0 0 0 0 0 0
0 0 0 0 0 0 0 0 0 0 0 0 0 0 0 0 0 0 0 0 0 0 0 0 0 0 0 0 0 0 0 0 0 0 0 0 0 0 0 0 0 0 0 0 0 0 0 0 0
0 0 0 0 0 0 0 0 0 0 0 0 0 0 0 0 0 0 0 0 0 0 0 0 0 0 0 0 0 0 0 0 0 0 0 0 0 0 0 0 0 0 0 0 0 0 0 0 0
0 0 0 0 0 0 0 0 0 0 0 0 0 0 0 0 0 0 0 0 0 0 0 0 0 0 0 0 0 0 0 0 0 0 0 0 0 0 0 0 0 0 0 0 0 0 0 0 0
0 0 0 0 0 0 0 0 0 0 0 0 0 0 0 0 0 0 0 0 0 0 0 0 0 0 0 0 0 0 0 0 0 0 0 0 0 0 0 0 0 0 0 0 0 0 0 0 0
0 0 0 0 0 0 0 0 0 0 0 0 0 0 0 0 0 0 0 0 0 0 0 0 0 0 0 0 0 0 0 0 0 0 0 0 0 0 0 0 0 0 0 0 0 0 0 0 0
0 0 0 0 0 0 0 0 0 0 0 0 0 0 0 0 0 0 0 0 0 0 0 0 0 0 0 0 0 0 0 0 0 0 0 0 0 0 0 0 0 0 0 0 0 0 0 0 0
0 0 0 0 0 0 0 0 0 0 0 0 0 0 0 0 0 0 0 0 0 0 0 0 0 0 0 0 0 0 0 0 0 0 0 0 0 0 0 0 0 0 0 0 0 0 0 0 0
0 0 0 0 0 0 0 0 0 0 0 0 0 0 0 0 0 0 0 0 0 0 0 0 0 0 0 0 0 0 0 0 0 0 0 0 0 0 0 0 0 0 0 0 0 0 0 0 0
0 0 0 0 0 0 0 0 0 0 0 0 0 0 0 0 0 0 0 0 0 0 0 0 0 0 0 0 0 0 0 0 0 0 0 0 0 0 0 0 0 0 0 0 0 0 0 0 0
0 0 0 0 0 0 0 0 0 0 0 0 0 0 0 0 0 0 0 0 0 0 0 0 0 0 0 0 0 0 0 0 0 0 0 0 0 0 0 0 0 0 0 0 0 0 0 0 0
0 0 0 0 0 0 0 0 0 0 0 0 0 0 0 0 0 0 0 0 0 0 0 0 0 0 0 0 0 0 0 0 0 0 0 0 0 0 0 0 0 0 0 0 0 0 0 0 0
Height
5879 5879 5879 5879 5880 5879 5878 5878 5877 5877 5876 5876 5876 5876 5876 5876 5876 5878 5876 5874 5874 5874 5874 5874 5875 5875 5875 5875 5875 5875 5876 5875 5875 5875 5875 5875 5875 5874 5874 5874 5874 5873 5873 5873 5872 5872 5872 5872 5871
5880 5880 5880 5880 5879 5879 5879 5878 5877 5877 5876 5876 5875 5875 5875 5875 5874 5874 5873 5873 5873 5873 5873 5873 5873 5873 5873 5873 5873 5873 5873 5873 5873 5873 5873 5872 5872 5872 5871 5871 5871 5870 5870 5870 5870 5869 5869 5869 5869
5880 5880 5881 5880 5879 5879 5878 5878 5877 5876 5876 5875 5875 5875 5874 5874 5873 5873 5873 5872 5872 5871 5871 5871 5871 5871 5871 5871 5871 5871 5871 5871 5871 5870 5870 5870 5869 5869 5869 5868 5868 5868 5867 5867 5867 5866 5866 5866 5866
5880 5880 5881 5880 5879 5879 5878 5877 5876 5875 5875 5874 5874 5874 5873 5873 5873 5872 5871 5871 5870 5870 5870 5869 5869 5869 5869 5869 5869 5869 5869 5868 5868 5868 5867 5867 5867 5866 5866 5865 5865 5865 5864 5864 5864 5864 5863 5863 5863
5880 5880 5880 5879 5878 5878 5877 5876 5875 5875 5874 5873 5873 5872 5872 5872 5871 5870 5869 5869 5869 5868 5868 5867 5867 5867 5867 5866 5866 5866 5866 5866 5865 5865 5865 5864 5864 5863 5863 5862 5862 5862 5861 5861 5861 5861 5860 5860 5860
5879 5879 5879 5878 5877 5877 5876 5875 5874 5873 5873 5872 5871 5870 5870 5870 5869 5868 5867 5867 5866 5866 5865 5865 5864 5864 5864 5863 5863 5863 5863 5862 5862 5862 5862 5861 5861 5860 5860 5860 5859 5859 5858 5858 5858 5857 5857 5857 5856
5878 5878 5877 5877 5876 5876 5875 5874 5873 5872 5871 5871 5869 5869 5868 5867 5866 5866 5865 5864 5864 5863 5863 5862 5862 5861 5861 5860 5860 5860 5859 5859 5859 5858 5858 5858 5858 5857 5857 5856 5856 5856 5855 5855 5854 5854 5854 5853 5853
5875 5876 5875 5875 5874 5874 5873 5872 5871 5870 5869 5869 5868 5867 5865 5865 5863 5863 5862 5862 5861 5861 5860 5859 5859 5858 5857 5857 5856 5856 5856 5855 5855 5855 5855 5854 5854 5853 5853 5853 5852 5852 5852 5851 5851 5850 5850 5850 5849
5873 5874 5873 5872 5872 5871 5871 5870 5869 5868 5867 5866 5865 5864 5863 5861 5860 5860 5859 5859 5858 5857 5857 5856 5855 5855 5854 5853 5853 5852 5852 5851 5851 5851 5850 5850 5850 5849 5849 5849 5848 5848 5848 5847 5847 5846 5846 5846 5845
5870 5870 5870 5870 5869 5868 5867 5867 5866 5865 5864 5863 5862 5861 5859 5858 5857 5856 5856 5855 5854 5854 5853 5852 5851 5851 5850 5849 5849 5848 5847 5847 5847 5846 5846 5846 5845 5845 5845 5844 5844 5843 5843 5843 5842 5842 5841 5841 5840
5866 5866 5866 5866 5866 5865 5864 5863 5862 5862 5861 5860 5858 5857 5856 5855 5854 5853 5852 5851 5851 5850 5849 5848 5848 5847 5846 5845 5845 5844 5843 5842 5842 5842 5841 5841 5840 5840 5839 5839 5839 5838 5838 5837 5837 5836 5836 5835 5835
5862 5862 5862 5862 5862 5861 5860 5859 5858 5858 5857 5856 5854 5853 5852 5851 5850 5849 5848 5847 5847 5846 5845 5844 5843 5843 5842 5841 5840 5839 5838 5838 5837 5836 5836 5835 5835 5834 5834 5833 5833 5832 5832 5831 5831 5830 5830 5829 5828
5858 5858 5858 5858 5858 5857 5856 5855 5854 5853 5853 5851 5850 5849 5848 5847 5846 5845 5844 5843 5842 5841 5841 5840 5839 5838 5837 5836 5835 5834 5833 5832 5832 5831 5830 5829 5829 5828 5828 5827 5826 5826 5825 5825 5824 5824 5823 5822 5821
5854 5853 5853 5853 5853 5852 5851 5851 5850 5849 5848 5847 5846 5845 5844 5843 5842 5841 5840 5839 5838 5837 5836 5835 5834 5833 5832 5831 5830 5829 5828 5827 5826 5825 5824 5823 5822 5821 5821 5820 5819 5818 5818 5817 5817 5816 5815 5814 5813
5849 5849 5849 5849 5848 5847 5847 5846 5845 5844 5843 5843 5842 5841 5840 5839 5838 5836 5835 5834 5833 5832 5831 5830 5829 5828 5827 5825 5824 5823 5822 5821 5820 5818 5817 5816 5815 5814 5814 5813 5812 5811 5810 5809 5808 5807 5806 5805 5804
5845 5845 5845 5844 5843 5842 5843 5842 5841 5839 5839 5838 5837 5836 5835 5834 5833 5832 5831 5829 5828 5827 5826 5825 5823 5822 5821 5820 5819 5817 5816 5815 5813 5812 5811 5809 5808 5807 5806 5805 5804 5802 5802 5801 5799 5798 5797 5795 5794
5840 5840 5839 5840 5839 5838 5838 5836 5836 5835 5834 5833 5833 5832 5831 5830 5829 5827 5826 5825 5823 5822 5821 5820 5818 5817 5816 5814 5813 5811 5810 5808 5807 5806 5804 5802 5801 5800 5798 5797 5795 5794 5793 5791 5790 5788 5787 5785 5783
5836 5835 5834 5834 5834 5834 5833 5832 5831 5830 5829 5829 5828 5827 5826 5825 5824 5823 5822 5820 5819 5817 5816 5815 5813 5812 5810 5809 5807 5806 5804 5802 5800 5799 5797 5795 5794 5792 5790 5789 5787 5785 5783 5782 5780 5778 5776 5774 5772
5831 5830 5830 5830 5829 5829 5828 5827 5826 5825 5825 5824 5823 5823 5822 5821 5820 5818 5817 5816 5814 5813 5811 5810 5808 5806 5804 5803 5801 5799 5797 5795 5793 5792 5790 5788 5786 5784 5782 5780 5778 5776 5774 5772 5769 5767 5765 5763 5760
5825 5825 5825 5825 5825 5825 5824 5823 5822 5821 5820 5820 5819 5818 5817 5816 5815 5814 5812 5811 5809 5808 5806 5804 5802 5800 5798 5797 5795 5793 5791 5788 5786 5784 5782 5780 5778 5775 5773 5771 5769 5766 5764 5762 5759 5756 5753 5751 5747
5820 5821 5821 5821 5820 5820 5819 5819 5817 5816 5816 5815 5814 5813 5812 5811 5810 5809 5807 5805 5804 5802 5800 5798 5797 5795 5792 5790 5788 5786 5784 5781 5779 5777 5774 5772 5769 5767 5764 5762 5759 5756 5754 5751 5747 5744 5741 5738 5735
5815 5816 5816 5816 5816 5816 5815 5814 5813 5812 5811 5810 5809 5808 5807 5806 5805 5803 5802 5800 5798 5796 5794 5792 5790 5788 5786 5784 5781 5779 5777 5774 5772 5769 5766 5764 5761 5758 5755 5752 5749 5746 5743 5740 5736 5732 5728 5725 5722
5810 5811 5811 5811 5810 5811 5810 5810 5810 5807 5806 5805 5804 5803 5802 5801 5799 5798 5796 5794 5792 5790 5788 5786 5784 5782 5779 5777 5775 5772 5769 5767 5764 5761 5758 5755 5752 5749 5745 5742 5739 5735 5731 5727 5723 5719 5715 5711 5707
5805 5806 5806 5805 5805 5806 5806 5805 5805 5803 5801 5800 5799 5798 5797 5795 5794 5792 5790 5788 5786 5784 5782 5780 5777 5775 5773 5770 5767 5765 5762 5759 5756 5753 5749 5746 5742 5739 5735 5731 5727 5723 5719 5715 5710 5705 5700 5695 5691
5799 5800 5801 5801 5801 5801 5800 5800 5800 5798 5796 5795 5794 5792 5791 5790 5788 5786 5784 5781 5779 5777 5775 5773 5770 5768 5765 5763 5760 5757 5754 5750 5747 5744 5740 5736 5732 5728 5724 5719 5715 5710 5705 5700 5695 5690 5684 5678 5673
5793 5795 5796 5796 5795 5795 5794 5794 5794 5792 5790 5789 5788 5786 5785 5783 5781 5779 5777 5775 5773 5770 5768 5766 5763 5760 5757 5754 5751 5748 5745 5741 5738 5734 5730 5726 5721 5717 5712 5707 5702 5696 5691 5685 5679 5673 5667 5660 5653
5787 5788 5789 5789 5788 5789 5789 5789 5788 5786 5784 5782 5781 5780 5778 5776 5774 5772 5770 5768 5765 5763 5760 5758 5755 5752 5749 5746 5742 5738 5735 5731 5727 5723 5718 5714 5709 5704 5698 5693 5687 5681 5674 5667 5661 5654 5647 5639 5632
5781 5782 5782 5782 5782 5782 5783 5783 5782 5780 5778 5776 5774 5773 5771 5769 5767 5764 5762 5760 5758 5755 5752 5749 5746 5743 5740 5736 5732 5728 5724 5720 5716 5711 5706 5701 5695 5689 5683 5677 5670 5663 5656 5648 5641 5633 5625 5617 5609
5775 5776 5776 5775 5776 5776 5776 5779 5775 5773 5771 5769 5767 5766 5764 5762 5759 5757 5754 5752 5749 5746 5743 5740 5737 5733 5730 5726 5722 5717 5713 5708 5703 5698 5692 5686 5680 5674 5667 5660 5652 5644 5636 5627 5619 5610 5601 5592 5584
5768 5769 5769 5770 5769 5768 5768 5772 5767 5765 5763 5761 5759 5758 5756 5754 5751 5748 5746 5743 5740 5737 5734 5730 5727 5723 5719 5715 5710 5705 5700 5695 5689 5684 5677 5671 5664 5657 5649 5641 5633 5624 5614 5605 5595 5586 5576 5567 5558
Wind_Speed
6 6 6 5 5 4 3 2 2 2 2 2 3 4 5 7 8 10 11 12 12 12 12 12 13 13 13 14 14 14 14 15 15 15 16 16 17 17 17 18 18 18 18 18 18 18 18 19 19
6 5 5 4 4 3 2 2 2 2 2 2 3 4 4 6 7 8 9 10 11 11 11 12 12 13 13 13 14 14 14 15 15 16 16 17 17 17 17 17 17 17 17 17 17 17 17 18 18
4 4 4 3 3 2 1 2 2 2 2 3 3 4 5 6 7 8 9 10 11 11 12 12 12 12 13 13 14 14 15 15 16 16 16 17 17 17 17 17 17 16 16 16 16 16 16 17 17
2 2 2 2 2 2 2 2 3 3 3 4 5 6 6 7 8 9 10 11 12 12 13 13 13 14 14 14 15 15 16 16 16 16 17 17 17 17 17 17 16 16 16 16 16 16 16 16 16
1 1 2 2 2 3 3 3 4 4 5 5 6 8 8 8 9 10 11 12 13 14 14 15 15 16 16 16 16 16 16 17 17 17 17 17 17 17 17 16 16 16 16 16 16 16 16 16 16
3 3 4 4 4 5 5 5 5 5 6 6 7 9 10 10 10 12 13 14 14 15 15 16 16 17 17 17 17 17 18 18 18 18 18 18 18 17 17 17 17 17 17 17 17 16 16 16 16
6 6 6 6 7 6 6 7 7 7 7 8 8 10 11 11 11 12 14 15 15 16 16 17 17 18 18 19 19 19 19 19 19 19 19 19 19 18 18 18 18 18 18 18 18 17 17 18 18
9 9 8 8 8 8 8 8 8 9 9 9 9 10 12 13 13 13 14 15 16 16 17 18 18 19 19 20 20 20 20 20 20 20 20 20 20 20 20 20 19 19 19 19 19 19 19 19 19
12 12 11 10 10 11 11 11 11 11 12 12 11 12 13 14 15 16 16 16 16 17 17 18 19 20 20 21 21 21 21 22 22 22 22 22 22 22 22 22 22 21 21 21 21 21 21 21 21
14 14 14 13 12 13 13 13 13 13 14 14 13 14 15 16 17 18 18 17 17 17 18 19 20 20 21 21 22 23 23 23 23 24 24 24 24 24 24 24 24 24 24 24 24 24 24 24 25
16 16 16 15 14 15 16 15 15 15 15 15 16 17 18 18 19 19 19 19 19 19 19 20 21 21 22 22 23 24 24 25 25 26 26 26 27 27 27 27 27 27 27 27 27 28 28 28 28
18 18 18 17 16 16 17 18 17 17 16 17 18 18 19 19 20 20 20 20 20 20 20 21 21 22 23 23 24 25 26 27 27 28 28 28 29 29 30 30 30 30 31 31 31 31 31 32 32
19 19 19 18 18 18 19 19 19 19 18 18 19 19 19 19 20 20 20 20 20 21 21 21 22 23 23 24 25 26 27 28 28 29 30 30 31 31 32 32 33 33 34 34 34 34 35 35 36
19 20 20 19 19 19 20 20 20 20 19 20 20 19 19 19 19 19 20 20 20 21 21 22 23 23 24 25 26 26 27 28 29 30 31 31 32 33 34 34 35 35 36 36 36 37 38 38 39
20 20 20 20 20 20 20 20 19 20 20 20 19 19 19 19 19 19 20 20 20 21 21 21 22 23 24 25 26 26 27 28 29 30 30 31 32 33 34 35 36 37 37 38 38 39 40 41 42
21 21 21 20 19 19 20 20 19 20 19 19 19 19 19 19 19 19 19 19 20 20 20 21 22 23 24 24 25 26 27 28 29 30 31 32 33 33 34 35 36 37 38 39 39 41 42 43 44
20 21 20 19 19 19 19 20 19 19 18 18 19 19 19 19 19 19 19 19 19 19 20 21 21 22 23 24 25 26 27 28 29 30 31 32 32 33 34 35 36 38 38 39 40 41 43 44 45
20 20 20 20 19 19 19 20 20 19 19 19 19 19 19 19 19 19 19 19 19 20 20 21 22 23 24 24 25 26 27 28 29 30 31 32 33 34 34 35 36 38 38 40 41 42 44 45 46
20 20 19 19 18 18 19 20 20 19 19 19 19 19 19 19 19 20 20 20 20 21 21 22 23 24 25 25 26 27 28 29 30 31 32 33 33 34 35 36 37 39 39 41 42 44 45 46 48
20 20 20 19 18 19 19 19 19 19 19 19 19 20 20 20 20 20 21 21 22 22 23 24 24 25 25 26 27 27 28 29 30 31 32 33 34 35 36 37 38 39 40 41 43 45 46 47 49
20 20 20 19 19 19 19 19 19 19 19 20 20 20 21 21 21 21 22 23 24 24 25 25 25 26 26 26 27 28 29 30 31 31 32 33 34 36 37 38 39 41 42 43 45 47 48 50 51
21 21 20 20 19 18 19 19 19 19 20 20 21 21 21 22 22 23 24 24 25 26 26 26 26 26 27 27 28 29 30 30 31 32 33 34 36 37 39 40 42 43 45 46 48 50 52 53 54
22 21 20 19 19 19 19 20 19 19 20 21 21 22 22 23 23 24 25 26 27 27 27 26 26 26 27 27 28 29 30 31 32 33 35 36 38 39 41 43 45 46 48 49 51 53 55 57 59
21 21 20 20 20 19 19 20 19 19 21 22 22 23 23 24 25 26 26 27 28 27 27 27 27 27 27 28 29 31 32 33 34 35 37 38 40 42 44 45 47 49 51 53 56 58 60 62 64
21 21 21 21 20 20 19 20 20 20 22 23 24 24 24 25 26 27 27 28 28 28 28 28 28 29 30 31 32 33 34 35 36 38 39 41 43 45 47 49 51 53 56 58 61 63 65 68 70
21 21 22 22 22 21 20 21 21 21 23 24 25 25 26 26 27 27 28 28 28 29 29 29 30 31 32 34 35 36 37 38 39 40 42 44 46 49 51 53 55 58 60 63 65 68 70 72 74
22 22 22 23 23 22 21 21 21 22 24 25 26 26 27 27 28 28 29 29 30 30 31 31 32 34 35 36 37 38 39 40 42 44 46 48 50 52 55 57 60 62 65 68 70 72 75 77 79
23 22 23 24 24 23 22 21 22 23 25 26 27 27 28 29 29 30 30 31 32 32 33 34 35 36 37 38 39 41 42 44 46 48 50 53 55 57 59 62 65 67 70 73 75 77 79 81 83
24 24 24 25 25 25 24 22 23 25 26 27 28 28 29 30 31 32 33 33 34 35 36 37 38 39 40 41 42 44 46 48 50 52 54 57 59 62 64 67 70 72 75 77 79 81 83 84 85
25 25 25 26 26 26 26 24 25 27 28 29 30 30 32 33 34 34 35 36 37 38 38 39 40 41 42 44 46 47 49 51 54 56 59 61 64 66 69 72 74 76 79 81 82 84 85 85 85
Wind_Direction
82 85 85 82 82 75 63 43 29 16 0 332 309 290 277 268 262 257 254 253 252 251 250 250 251 251 253 254 255 257 258 259 260 261 262 263 264 263 263 262 261 260 259 259 258 258 257 257 257
79 78 75 73 69 63 49 25 7 347 331 316 306 295 287 278 271 263 258 256 253 251 252 252 252 253 254 255 257 259 260 261 262 264 265 267 267 266 265 264 263 262 261 260 260 259 258 258 257
76 70 67 56 44 39 22 356 337 322 308 299 294 292 288 282 279 270 266 261 258 256 255 255 256 256 257 258 260 261 263 264 265 266 267 268 269 268 266 265 264 263 262 261 260 260 260 259 259
55 55 44 34 14 358 342 329 321 311 303 298 294 290 286 283 278 275 272 268 264 262 260 260 260 261 262 263 264 265 265 266 267 268 269 269 269 269 267 265 264 264 264 263 262 261 261 260 260
326 336 329 328 330 328 323 319 315 308 302 296 293 289 286 283 278 276 274 272 269 266 264 263 264 264 265 265 265 266 266 266 267 268 269 269 269 268 266 264 264 264 264 264 264 263 263 262 262
278 295 299 303 308 310 309 307 307 308 303 297 293 290 286 282 276 274 273 271 270 268 267 266 265 266 266 266 267 267 267 266 267 268 268 268 267 266 265 264 264 264 266 266 265 265 266 266 266
268 278 287 294 298 298 300 300 300 300 297 293 290 287 286 283 277 272 271 271 270 269 267 267 266 266 266 266 267 267 267 267 267 267 267 266 265 265 264 264 264 265 265 265 266 267 267 268 268
267 272 279 287 291 291 292 291 292 292 291 289 286 282 282 284 280 276 272 271 270 270 269 267 266 266 266 266 266 266 267 266 266 266 266 265 265 265 264 264 264 265 265 266 266 266 267 268 268
266 270 274 280 285 287 286 285 285 286 287 288 287 281 278 278 279 278 276 274 273 271 270 268 267 266 266 266 266 267 267 267 266 265 265 265 265 265 265 264 265 266 266 266 266 267 268 268 269
265 268 272 277 281 284 283 283 283 283 284 286 282 275 274 275 277 279 279 277 275 273 271 269 268 268 268 267 267 267 267 267 266 265 265 265 265 265 265 265 265 266 266 266 267 268 268 269 269
266 268 272 275 278 281 282 283 283 283 283 282 278 276 276 277 278 280 281 280 278 275 273 272 271 270 270 269 268 268 267 267 266 266 266 266 266 265 265 266 266 266 267 267 267 268 269 270 270
266 269 272 275 277 278 280 283 283 284 282 280 278 279 280 281 282 283 283 282 281 279 277 275 273 272 272 271 270 269 269 268 268 268 267 267 267 267 267 267 267 267 268 268 268 269 270 270 271
267 270 273 275 277 278 279 280 282 282 281 281 281 281 282 283 284 285 285 284 282 281 279 277 276 275 274 273 272 272 271 271 270 270 269 268 268 268 268 268 269 269 269 269 269 270 270 271 271
268 271 274 276 278 279 279 280 280 281 281 281 281 281 282 283 284 285 285 285 284 283 281 280 278 277 276 275 274 274 274 273 273 272 271 271 270 270 270 270 270 270 270 270 271 271 271 271 272
269 273 275 277 279 279 280 280 280 281 281 281 281 281 282 283 284 285 286 286 286 285 284 282 281 280 279 278 277 276 275 275 275 274 274 273 273 272 272 272 272 272 272 272 272 272 272 272 272
269 272 274 277 278 279 279 279 280 281 281 280 281 282 283 284 285 287 288 288 288 287 287 286 285 283 282 282 281 279 278 277 277 277 276 276 276 276 275 275 275 274 274 274 273 273 273 273 273
269 272 274 276 277 278 279 280 281 281 281 282 284 285 286 287 289 290 290 290 290 290 290 289 288 287 287 286 285 284 283 282 281 280 280 279 279 278 278 278 277 277 277 276 276 275 275 274 274
269 272 274 276 277 277 278 280 281 281 282 284 286 287 288 290 291 292 292 293 292 292 292 292 291 290 290 289 287 286 285 284 284 283 282 281 281 281 281 280 280 279 279 278 277 276 276 275 275
268 269 271 274 276 278 278 278 280 282 283 285 287 288 290 292 292 293 293 293 293 293 293 293 293 292 291 290 289 287 286 286 285 285 285 285 284 283 283 282 281 281 281 280 280 279 278 278 277
266 267 270 272 275 276 277 277 279 281 283 285 287 289 290 292 292 292 292 292 294 294 295 294 294 293 292 291 290 290 289 289 289 288 287 287 286 286 286 285 285 284 284 284 283 282 281 281 280
263 266 269 272 274 275 275 275 278 280 282 284 286 288 289 290 291 291 292 293 295 295 295 294 294 293 292 291 291 290 290 290 290 290 289 289 289 289 288 288 287 286 286 285 285 284 284 283 283
262 264 267 270 273 273 274 274 277 280 282 284 286 287 288 290 291 291 292 293 295 295 295 294 295 294 292 292 291 291 291 291 291 291 290 290 290 290 290 290 289 289 288 288 287 287 286 286 286
260 263 266 269 271 272 273 274 275 278 282 283 285 286 288 289 290 290 291 293 294 294 294 294 294 294 293 293 292 292 292 292 291 291 291 291 291 291 291 291 291 290 290 290 289 289 288 288 287
258 262 266 269 271 271 272 274 276 278 280 282 284 286 287 288 289 290 291 292 293 293 293 293 294 293 293 293 293 293 293 293 293 292 292 292 293 293 293 293 292 292 291 291 290 290 289 289 288
258 263 268 270 271 272 272 273 277 279 280 282 284 286 287 288 289 290 290 291 292 292 293 293 293 293 293 293 293 293 293 293 292 292 292 293 293 293 293 293 293 293 292 292 291 291 290 290 289
258 262 268 272 273 273 272 275 278 279 281 283 285 286 287 288 289 289 290 291 291 292 292 292 292 292 292 292 293 293 293 293 293 293 293 294 294 294 294 294 294 294 293 293 292 292 291 290 289
258 263 267 271 272 273 274 277 278 280 282 284 286 287 288 289 289 289 290 291 291 291 291 292 292 293 293 293 293 293 293 293 293 294 295 295 295 295 295 295 295 295 295 294 294 293 292 291 290
258 262 266 269 273 275 276 278 280 281 283 285 286 287 288 289 289 289 290 290 291 291 291 292 293 293 294 294 294 294 295 295 295 296 297 297 297 297 297 297 297 296 296 295 295 294 293 292 291
260 263 266 269 273 277 279 280 282 284 285 285 286 286 287 288 289 289 290 290 291 291 292 293 293 294 295 295 295 296 296 297 297 298 298 298 298 299 298 298 298 298 298 297 297 296 295 294 293
262 265 267 270 273 277 281 284 284 285 286 286 286 287 287 288 289 290 290 291 291 291 292 293 294 295 296 296 297 297 298 299 299 300 300 300 301 301 300 300 300 300 300 299 299 298 297 296 295